Tracking 19817 objects as of 19-Aug-2019
HD Live streaming from Space Station
objects crossing your sky now

COSMOS 2251 DEB

Track COSMOS 2251 DEB now!
10-day predictions


NORAD ID: 34304
Int'l Code: 1993-036NA
Perigee: 708.6 km
Apogee: 934.2 km
Inclination: 74.0 °
Period: 101.2 minutes
Semi major axis: 7192 km
RCS: 0.0279 m2 (small)
Launch date: June 16, 1993
Source: Commonwealth of Independent States (former USSR) (CIS)
Launch site: PLESETSK MISSILE AND SPACE COMPLEX (PKMTR)

Note: This is SATELLITE DEBRIS
aabbcc
Your satellite tracking list
Your tracking list is empty




NASA's NSSDC Master Catalog

Two Line Element Set (TLE):
1 34304U 93036NA  19230.78996343 +.00000313 +00000-0 +13263-3 0  9994
2 34304 074.0205 347.0423 0156779 308.1533 174.5713 14.23284547543667
Source of the keplerian elements: AFSPC